Theta_e
303 303 303 304 304 306 308 310 313 315 317 318 319 319 319 318 317 316 316 315 314 313 312 310 308 309 310 312 314 313 314 313 312 313 313 313 311 310 309 309 309 309 309
301 301 301 301 301 301 302 307 310 312 313 313 313 315 316 316 316 315 314 313 313 312 310 307 306 307 311 313 314 313 311 311 309 309 308 308 308 307 307 307 307 306 306
301 300 300 300 300 300 301 302 303 305 308 311 311 311 311 312 312 313 312 311 310 308 307 306 306 310 312 313 311 310 309 307 307 307 307 306 305 305 305 304 303 304 303
298 297 298 298 299 300 300 300 301 303 303 304 310 310 310 311 311 310 308 308 308 307 306 307 309 310 311 308 308 308 306 306 306 306 305 304 304 304 304 303 303 303 303
297 297 297 297 298 298 299 301 302 303 303 307 308 309 309 308 307 307 306 306 307 305 306 308 308 307 303 305 306 306 305 305 304 303 303 303 302 302 302 302 301 301 301
298 298 297 297 297 299 300 301 302 304 307 307 307 307 304 304 303 304 304 305 306 306 307 308 304 300 300 302 304 304 304 303 302 302 301 301 301 301 301 301 301 301 300
298 298 298 298 298 299 300 301 300 301 303 303 304 303 302 303 303 303 305 305 306 307 308 303 301 301 301 301 300 302 301 301 300 301 301 301 301 301 301 301 301 301 301
298 298 298 298 299 300 300 300 300 301 301 301 302 302 303 304 304 305 305 306 308 308 305 304 302 301 301 302 301 301 301 301 301 301 301 301 301 300 300 300 301 300 300
298 298 298 299 300 300 301 301 301 301 302 302 303 303 305 306 307 308 308 309 308 307 304 302 301 301 302 303 303 302 301 301 301 302 301 301 300 300 301 300 300 300 300
298 299 298 299 299 299 300 300 301 301 301 302 304 304 304 305 305 306 306 306 305 303 302 302 303 303 302 302 302 302 302 302 302 302 301 301 301 302 302 302 301 300 299
299 300 301 302 301 301 301 301 301 301 301 302 302 303 303 303 303 304 303 303 302 302 302 301 301 300 300 301 301 302 303 302 303 302 301 301 300 301 301 301 300 300 299
300 300 301 301 301 301 300 300 300 300 301 301 301 302 302 303 302 302 301 301 301 300 300 300 300 299 300 300 301 301 302 303 303 302 300 299 299 298 299 300 300 300 299
300 299 300 300 300 300 300 300 300 300 301 300 299 299 299 300 300 300 300 300 300 301 300 300 299 299 299 299 300 300 301 302 303 302 300 299 299 298 298 298 299 299 299
300 299 299 299 300 299 299 299 300 300 300 300 300 300 301 301 300 301 300 300 300 300 300 299 299 298 298 298 298 300 302 303 302 302 301 299 298 298 297 298 298 299 299
299 299 299 299 300 300 300 299 299 299 298 298 298 299 299 300 299 299 299 299 299 298 298 297 296 296 297 297 299 301 302 301 300 300 299 297 297 297 297 298 299 299 298
299 299 299 299 299 300 299 299 298 298 297 298 299 299 298 298 298 298 297 297 297 297 296 296 296 297 298 298 297 297 297 297 297 297 297 297 297 297 298 298 299 298 297
297 297 297 298 298 297 297 298 298 297 297 297 297 297 297 297 297 297 297 297 297 296 296 296 297 298 298 297 296 297 297 297 297 297 297 297 298 298 298 298 298 298 297
297 296 296 296 296 297 297 297 297 297 297 297 297 297 297 297 297 296 296 296 296 296 295 296 298 299 298 298 297 295 296 296 296 296 297 297 298 298 298 298 298 297 297
297 297 297 297 296 297 297 297 297 297 297 297 296 296 296 296 296 295 294 294 295 295 295 295 296 297 297 297 297 296 296 295 296 296 296 297 297 298 298 298 298 298 297
299 299 298 297 297 297 297 296 297 297 297 297 297 297 296 296 295 293 292 292 292 293 294 294 295 296 296 296 295 296 297 295 295 295 296 296 297 297 297 297 297 297 296
300 299 298 297 296 296 296 297 297 297 296 296 296 296 296 296 294 292 292 292 293 293 293 294 294 295 294 294 293 293 293 294 295 295 295 296 297 297 297 297 297 297 296
297 297 297 297 297 297 297 297 297 296 296 296 296 295 293 293 294 294 293 293 293 293 293 293 293 293 293 292 292 293 292 292 292 291 292 294 297 297 296 297 296 296 297
298 298 297 297 297 297 297 297 297 296 296 296 296 295 295 296 296 296 296 295 294 294 294 294 294 294 294 293 292 291 291 291 292 291 291 295 297 296 296 296 296 297 297
299 299 299 299 298 297 297 297 296 297 296 296 296 296 296 296 296 296 296 296 296 296 296 295 295 295 295 294 294 292 291 291 291 290 291 296 297 296 297 297 297 298 297
299 299 298 298 298 297 297 297 297 297 296 296 296 296 296 296 296 296 297 296 296 296 296 296 296 295 294 293 293 292 291 291 291 290 290 296 297 297 297 298 297 298 298
299 299 299 298 298 297 297 297 297 297 297 296 297 297 296 295 295 296 296 296 296 296 296 296 296 296 296 295 293 291 290 290 291 290 290 297 298 297 298 298 298 298 298
Wind_Speed
32 32 31 31 32 31 29 28 25 22 19 23 26 28 25 26 28 26 21 21 24 24 26 29 30 29 27 26 21 23 28 24 25 21 20 20 19 13 12 11 10 10 7
31 27 29 29 28 27 28 29 25 24 23 22 22 22 24 26 25 26 25 22 22 24 27 29 29 25 24 22 20 23 24 21 21 15 16 13 10 8 8 8 7 6 6
31 33 31 26 24 21 19 22 25 32 27 23 23 25 23 22 20 17 17 17 21 25 29 30 26 20 19 19 19 19 17 15 8 6 5 3 3 5 5 6 6 6 6
28 27 25 26 21 21 21 18 19 18 23 29 22 20 23 23 19 17 18 24 26 28 28 23 17 15 14 12 12 9 4 2 2 3 4 3 4 5 7 7 6 8 9
28 27 26 24 19 20 15 12 16 16 16 16 20 20 18 21 22 22 22 25 27 22 20 13 10 6 5 5 5 5 4 5 7 6 6 6 6 8 11 11 10 11 11
25 23 23 19 16 12 12 12 13 10 5 3 10 12 15 18 21 23 26 26 18 17 13 11 3 4 5 4 5 5 7 8 7 6 7 8 8 9 9 9 10 11 13
22 20 17 13 14 11 9 9 11 13 9 10 12 14 17 21 23 20 17 17 15 13 13 11 12 12 13 13 12 9 8 8 10 10 9 8 7 9 10 10 9 10 14
17 15 14 11 12 10 10 9 10 9 9 10 11 12 15 15 12 13 14 12 11 10 17 14 12 11 10 12 15 11 9 8 9 10 11 12 13 12 12 12 10 11 11
15 13 10 10 10 9 9 9 9 9 7 7 9 9 9 8 7 7 5 5 13 19 13 15 13 15 14 8 7 8 8 7 8 9 10 10 10 9 10 9 10 11 15
16 14 10 10 10 9 9 10 9 10 9 8 8 10 11 11 10 6 17 22 24 18 14 16 11 10 6 5 4 5 4 5 5 7 9 10 11 10 12 11 12 14 17
15 16 17 15 13 10 10 12 12 12 13 16 20 22 24 25 25 22 18 16 14 18 17 15 11 8 7 6 6 7 5 4 2 5 9 10 12 13 12 9 11 14 16
14 15 15 14 13 12 12 13 13 13 16 16 18 18 17 17 20 24 24 27 25 21 13 12 11 11 10 8 8 8 7 3 5 2 8 11 12 15 12 12 11 12 11
12 13 14 13 15 17 17 18 21 20 19 24 29 31 29 27 24 21 20 17 13 12 11 10 10 9 9 10 10 10 8 3 6 2 9 11 14 13 13 11 11 13 11
14 15 16 19 21 21 22 20 23 31 32 28 24 22 20 22 18 15 14 11 10 10 10 10 8 9 12 12 13 12 9 10 8 6 10 14 14 12 14 11 11 12 12
17 19 20 25 32 35 35 32 28 25 23 24 25 24 21 19 18 17 17 17 14 11 8 7 10 15 19 19 18 17 10 7 8 9 11 13 14 15 13 11 9 9 14
32 33 32 33 30 29 28 27 26 25 23 22 22 21 20 20 17 14 13 14 12 10 12 15 14 15 17 18 19 15 11 11 13 12 14 14 15 13 11 10 9 10 16
26 28 28 28 27 26 26 25 25 24 25 24 22 19 17 16 14 13 12 11 10 11 14 14 13 13 14 17 23 19 19 18 16 15 17 15 14 13 11 11 11 12 16
26 26 27 27 26 26 25 23 21 20 20 20 18 16 14 13 12 11 10 8 11 13 16 16 14 13 14 18 21 23 20 19 18 17 18 19 15 14 11 11 12 12 13
24 23 22 21 18 18 18 18 18 18 17 16 13 13 12 11 10 10 10 11 11 12 13 14 14 13 16 17 17 17 18 18 20 20 20 19 17 14 13 12 10 11 13
14 13 14 14 13 12 13 14 13 13 13 12 12 12 11 9 15 17 19 19 17 16 14 14 14 15 16 17 17 15 14 18 18 21 22 20 18 15 14 12 11 12 13
7 10 14 13 13 13 13 11 10 10 10 11 12 11 11 12 15 17 17 18 18 18 17 16 15 14 15 15 16 18 18 17 19 19 21 22 18 15 13 10 10 12 11
15 15 13 12 11 11 11 12 12 12 13 14 14 14 14 16 16 17 17 17 16 16 16 16 17 17 19 20 18 17 21 21 20 22 21 21 18 14 12 10 9 12 11
12 12 13 11 7 4 5 9 11 10 11 11 12 13 14 15 15 16 16 15 14 14 14 14 15 16 16 17 21 22 22 22 22 24 24 22 19 14 12 12 12 11 10
3 3 3 3 3 5 5 7 8 9 9 11 12 13 13 14 15 15 15 14 14 14 14 15 16 16 17 17 17 19 22 23 21 22 23 22 20 16 14 13 12 11 10
6 6 5 5 5 4 5 6 7 8 9 10 11 12 13 13 13 14 14 14 15 16 18 19 20 20 20 19 18 19 20 21 23 23 23 22 19 16 16 16 15 13 12
2 2 1 1 2 3 4 5 6 6 7 8 9 10 11 11 12 12 13 13 15 16 17 19 20 21 22 22 22 20 19 21 23 24 23 22 19 18 18 20 14 13 13
Wind_Direction
312 308 300 292 283 277 272 271 272 267 262 261 263 260 254 264 269 272 275 280 288 293 299 304 308 311 304 299 295 300 300 290 282 288 285 284 298 305 301 299 304 302 296
314 309 302 301 301 296 277 263 264 267 265 268 267 270 272 270 268 279 276 276 282 291 300 305 307 302 296 296 297 301 310 281 284 294 295 296 298 308 318 317 307 301 299
315 311 310 305 298 297 291 289 276 262 264 268 273 274 278 279 272 263 267 278 292 302 304 305 302 297 293 295 299 307 292 285 293 287 285 341 342 335 348 353 4 4 346
319 319 316 310 301 298 290 292 288 287 276 264 268 272 262 265 265 275 290 296 302 304 302 298 298 296 291 308 318 317 306 303 346 68 74 46 18 22 12 3 15 6 3
328 325 320 318 311 295 300 305 308 290 277 271 261 269 282 289 290 280 289 294 291 291 292 298 274 281 327 347 353 34 78 75 77 78 74 64 27 29 34 24 21 17 352
328 328 326 321 319 320 308 307 306 308 271 261 258 270 295 301 301 290 293 291 285 283 283 244 189 78 68 63 67 89 86 70 66 76 57 54 31 7 3 352 347 349 354
331 333 335 328 331 329 324 317 322 321 319 305 289 291 301 301 297 288 283 286 284 271 227 137 107 91 83 79 78 83 80 76 73 65 60 46 22 7 357 350 336 336 353
339 340 344 342 340 346 349 336 325 324 318 325 326 324 315 299 296 295 290 281 275 181 132 112 101 106 92 81 74 73 76 74 70 68 56 51 44 34 29 23 17 1 344
1 355 11 10 17 3 5 8 358 355 353 333 333 329 336 341 328 323 307 249 163 150 125 103 95 78 82 73 63 51 64 63 64 51 40 32 24 16 13 10 4 4 5
25 25 10 356 355 353 353 4 22 23 24 23 36 44 52 50 40 82 129 123 116 104 89 88 70 68 64 40 12 347 353 13 22 29 27 16 1 350 352 0 9 10 19
36 32 29 38 41 46 26 30 42 57 69 82 88 87 89 90 91 92 80 69 89 103 89 87 75 39 32 23 10 12 327 256 295 8 9 12 12 358 355 342 359 2 1
26 27 35 37 39 37 45 55 70 76 97 93 95 93 98 98 84 92 94 95 99 96 79 60 62 54 50 35 24 16 5 322 219 30 10 16 13 20 3 354 356 358 352
23 42 45 51 62 67 72 83 93 94 91 96 94 90 91 88 85 80 80 79 68 57 68 65 72 56 17 7 14 17 9 6 159 76 22 18 3 2 358 351 343 348 347
54 61 69 75 77 78 80 93 94 98 98 89 78 75 72 79 75 63 66 70 69 68 72 84 49 17 17 21 28 40 54 107 99 25 6 2 357 360 358 351 344 343 348
72 78 85 90 93 96 87 89 87 83 75 73 73 74 75 68 67 71 71 74 80 79 81 65 50 44 47 54 59 63 82 66 20 11 355 360 4 358 350 352 347 357 359
89 86 91 97 95 89 88 86 83 79 73 72 74 75 74 76 80 70 75 74 77 71 67 59 58 55 53 47 39 37 45 37 23 19 11 2 358 354 354 1 358 8 2
84 87 90 90 88 83 80 80 82 80 80 81 81 77 74 73 67 57 51 56 55 40 55 56 59 56 47 38 35 43 44 38 30 19 15 9 359 4 4 6 10 12 8
90 88 87 85 85 85 81 83 87 85 81 77 74 68 65 62 55 47 34 42 60 56 54 55 60 53 40 32 31 37 37 32 25 16 10 12 8 12 9 5 5 6 4
91 87 84 84 87 89 83 85 83 80 79 78 70 60 51 42 42 47 45 53 56 54 47 50 50 42 36 31 28 31 25 27 24 20 14 8 10 9 8 6 9 15 9
86 84 86 84 85 86 85 86 82 73 72 68 60 48 38 46 53 55 59 59 59 57 54 51 45 39 30 25 26 22 14 23 23 19 15 14 10 3 2 7 12 11 6
85 93 101 95 85 87 84 74 60 60 59 59 55 44 33 44 55 59 60 59 58 56 53 48 43 34 27 22 21 22 22 16 11 7 10 12 8 12 13 12 13 6 7
101 100 113 113 94 84 71 54 53 58 61 61 61 61 60 63 60 59 58 57 56 52 49 43 39 37 34 30 25 21 22 22 19 15 11 7 10 13 20 26 19 14 13
108 108 114 122 121 98 57 49 48 57 59 59 61 64 63 61 57 53 50 49 46 44 42 38 35 34 29 26 25 26 22 16 15 13 14 12 14 23 30 28 21 19 30
134 131 153 145 159 102 79 64 66 66 64 67 64 60 56 54 52 49 46 45 43 40 38 34 31 26 22 20 20 18 17 18 16 13 16 17 19 35 37 34 27 35 50
93 89 91 88 95 64 69 71 67 65 65 61 57 52 49 49 49 48 50 51 51 50 48 43 37 32 26 21 16 16 17 17 16 15 19 22 27 40 39 36 39 54 63
95 66 64 74 57 51 46 46 49 48 43 44 46 46 43 43 47 52 58 57 52 49 47 42 36 31 27 25 22 15 15 20 19 18 21 28 38 45 41 30 53 58 53